Location: B?ogocice
(50.2413°N, 20.2361°E)
Time: 02:14:36
(UTC+00:00)

ALOS - Pass Details

Date: 22 September 2024
Orbit: 670 x 673 km, 98.0° (Epoch: 04 October)

Event Time Altitude Azimuth Distance (km) Brightness Sun altitude
Rises 00:25:48 0° 25° (NNE) 3,030 6.6 -34.0°
Reaches altitude 10° 00:28:29 10° 40° (NE) 2,110 5.6 -33.8°
Enters shadow 00:31:27 22° 80° (E) 1,474 4.3 -33.5°
